Location: Grand Rapids
(42.9630°N, 85.6680°W)
Time: 03:17:38
(UTC-04:00)

A-11 Canister half - Pass Details

Date: 06 June 2024
Orbit: 1524 x 1684 km, 47.3° (Epoch: 21 June)

Event Time Altitude Azimuth Distance (km) Brightness Sun altitude
Rises 01:52:07 0° 295° (WNW) 4,725 11.9 -24.3°
Reaches altitude 10° 01:55:22 10° 288° (WNW) 3,757 11.2 -24.3°
Maximum altitude 02:03:57 40° 224° (SW) 2,217 9.4 -24.1°
Enters shadow 02:05:38 37° 203° (SSW) 2,304 9.4 -24.1°
Drops below altitude 10° 02:12:48 10° 159° (SSE) 3,859 - -23.9°
Sets 02:16:13 0° 153° (SSE) 4,864 - -23.8°
